星链-31519 (STARLINK-31519 )

导读 | 豆包AI

STARLINK-31519是美国太空探索技术公司(SpaceX)于2024年4月18日发射的星链(Starlink)低轨互联网卫星,隶属于星链第二代星座部署计划。该卫星运行在近地轨道,配备先进相控阵通信天线与氪离子推进系统,具备自主变轨和主动避障能力,作为全球巨型低轨星座的组成部分,旨在提供高带宽、低延迟的互联网接入服务,重点覆盖偏远及基础设施薄弱区域,助力全球互联网络覆盖。

基本信息
目录编号:
59546
目录名称:
STARLINK-31519
国际标识:
2024-074N
轨道中心:
EARTH
卫星名称:
星链-31519
卫星全名:
星链-31519 (STARLINK-31519 )
卫星状态:
在轨 (已飞行696 天)
发射日期:
2024-04-18 UTC
国别 :
美国 (US)
星等 :
--
轨道信息
数据来源 国际轨道数据
星历时间: 2026-03-15T16:18:46+0800
13小时前
查看轨道信息
半长轴: 6861.136km
偏心率: 0.000098
轨道倾角: 42.996°
近地点辐角 304.517°
升交点赤经 311.216°
平近点角 55.559°
近地点: 482.326km
远地点: 483.672km
周期: 94.266分钟
每日圈数: 15.275968
详细信息
固有亮度:
5
最大亮度:
1.5
卫星平台:
Starlink v2.0 mini
覆盖范围:
全球
运营商:
太空探索技术公司
运营商所在国:
美国
制造商(研发单位):
太空探索技术公司
制造商所在国:
美国
使用方式:
暂无
卫星简介
星链(Starlink)计划是由太空探索技术公司(SpaceX)提出的一个巨型低轨卫星互联网星座项目,计划在2019年至2024年间在太空搭建由约1.2万颗卫星组成的“星链”网络,其中1584颗将部署在地球上空550千米处的近地轨道,并从2020年开始工作。该卫星仍在工作。
2D轨道图
3D轨道图
轨道高度分析图
轨道倾角分析图
轨道综合分析图
查看轨道综合分析图